AKDT,Max TemperatureF,Mean TemperatureF,Min TemperatureF,Max Dew PointF,MeanDew PointF,Min DewpointF,Max Humidity, Mean Humidity, Min Humidity, Max Sea Level PressureIn, Mean Sea Level PressureIn, Min Sea Level PressureIn, Max VisibilityMiles, Mean VisibilityMiles, Min VisibilityMiles, Max Wind SpeedMPH, Mean Wind SpeedMPH, Max Gust SpeedMPH,PrecipitationIn, CloudCover, Events, WindDirDegrees
2013-7-1,59,55,53,53,52,49,97,88,74,29.83,29.70,29.60,10,10,10,8,4,,0.16,8,Rain,8
2013-7-2,64,58,53,52,45,37,93,66,38,29.90,29.73,29.61,10,10,10,14,3,21,0.01,8,Rain,194
2013-7-3,64,58,53,51,45,38,90,65,41,30.02,29.98,29.91,10,10,10,9,4,17,0.01,8,Rain,145
2013-7-4,59,56,52,52,48,38,97,78,46,30.07,30.03,30.00,10,10,5,7,4,,0.16,8,Rain,347
2013-7-5,63,58,53,51,47,44,90,73,53,30.08,30.06,30.03,10,10,10,7,4,,0.02,8,Rain,350
2013-7-6,64,58,53,52,49,45,93,76,53,30.04,29.94,29.78,10,10,10,7,3,,0.00,8,Rain,311
2013-7-7,69,61,53,53,51,45,96,78,42,29.75,29.64,29.59,10,10,10,24,4,36,0.01,7,Rain,237
2013-7-8,64,56,50,50,48,46,96,77,54,29.84,29.76,29.69,10,10,7,10,4,,0.01,7,,224
2013-7-9,68,61,54,50,48,45,86,66,49,30.04,29.96,29.85,10,10,10,10,5,,0.00,6,Rain,260
2013-7-10,73,64,55,53,49,44,90,60,42,30.05,30.00,29.94,10,10,10,10,3,,0.01,5,Rain,279
2013-7-11,78,67,57,55,51,45,87,57,38,29.95,29.93,29.90,10,10,9,8,2,,0.01,3,Rain,296
2013-7-12,79,68,57,52,49,45,81,55,35,29.97,29.94,29.90,10,10,10,9,3,,0.00,3,,290
2013-7-13,73,65,59,54,50,47,83,56,42,30.17,30.05,29.97,10,10,10,9,5,,0.00,3,,279
2013-7-14,68,60,55,54,52,48,88,74,54,30.33,30.29,30.19,10,10,10,12,5,,0.00,3,,281
2013-7-15,66,58,53,53,51,49,94,76,63,30.36,30.32,30.26,10,10,9,8,2,,0.00,7,,268
2013-7-16,70,63,57,55,53,51,87,71,56,30.26,30.20,30.14,10,10,10,10,3,,0.00,7,Rain,290
2013-7-17,73,66,59,57,56,53,87,69,57,30.14,30.10,30.07,10,10,10,8,3,,0.00,6,,240
2013-7-18,75,67,61,59,57,56,87,70,55,30.15,30.13,30.09,10,10,10,13,4,21,0.00,6,,277
2013-7-19,73,68,64,57,52,50,68,57,47,30.19,30.15,30.12,10,10,10,17,10,28,0.00,5,,242
2013-7-20,73,65,57,59,52,46,100,67,41,30.15,30.11,30.05,10,9,4,8,5,,0.23,5,Rain,238
2013-7-21,80,67,55,49,43,39,67,43,26,30.07,30.00,29.93,10,10,10,15,5,22,0.00,1,,336
2013-7-22,82,70,57,51,46,43,62,45,30,30.09,30.04,29.97,10,10,10,14,6,21,0.00,1,,339
2013-7-23,78,68,61,51,48,44,54,47,36,30.11,30.07,30.03,10,10,10,7,3,,0.00,1,,305
2013-7-24,81,68,55,55,52,50,80,56,35,30.04,29.99,29.93,10,10,10,9,2,,0.00,1,,298
2013-7-25,78,70,63,61,57,52,93,69,47,30.07,29.99,29.95,10,10,8,13,4,,0.04,5,Rain,265
2013-7-26,75,68,62,60,58,57,90,80,59,30.30,30.20,30.08,10,10,5,13,3,,0.00,6,Rain,297
2013-7-27,73,67,61,59,56,54,87,73,51,30.36,30.33,30.30,10,10,10,10,4,,0.00,5,,274
2013-7-28,75,68,61,60,57,55,90,73,50,30.30,30.24,30.15,10,10,10,7,3,,0.00,4,,279
2013-7-29,77,67,59,59,57,54,96,72,48,30.19,30.17,30.13,10,10,10,8,3,,0.00,2,,280
2013-7-30,75,65,57,60,56,54,93,71,52,30.22,30.20,30.16,10,10,10,9,3,,0.00,1,,271
2013-7-31,75,66,57,59,56,52,96,72,48,30.21,30.18,30.12,10,10,7,10,3,,0.00,3,,280